Regional Weather Roundup
Issued by NWS Sioux Falls, SD

Home | Current Version | Previous Version | Text Only | Print | Product List | Glossary On
Versions: 1 2 3 4 5 6 7 8 9 10 11 12 13 14 15 16 17 18 19 20 21 22 23 24 25 26 27 28 29 30 31 32 33 34 35 36 37 38 39 40 41 42 43 44 45 46 47 48 49 50
396
ASUS43 KFSD 261110
RWRFSD

WEATHER ROUNDUP FOR SE SOUTH DAKOTA/SW MINNESOTA/NW IOWA
NATIONAL WEATHER SERVICE SIOUX FALLS SD
600 AM CDT WED JUL 26 2017

NOTE: "FAIR" INDICATES FEW OR NO CLOUDS BELOW 12,000 FEET WITH NO
SIGNIFICANT WEATHER AND OR OBSTRUCTIONS TO VISIBILITY.


SDZ038>040-050-052>070-261200-
SOUTHEAST SOUTH DAKOTA

CITY           SKY/WX    TMP DP  RH WIND       PRES   REMARKS
BROOKINGS      CLOUDY    69  68  96 CALM      30.01
CHAMBERLAIN    MOCLDY    70  70  99 CALM      30.00R
HURON          PTCLDY    70  69  97 NE7       29.98R
MADISON        PTSUNNY   66  66 100 CALM      30.01S
MITCHELL       CLOUDY    69  68  96 E5        29.98R
SIOUX FALLS    CLOUDY    71  71 100 N5        30.00R
WINNER         CLOUDY    71  68  90 NE10      30.00R
YANKTON        CLOUDY    71  70  96 N7        29.95F
$$

MNZ071-072-080-081-089-090-097-098-261200-
SOUTHWEST MINNESOTA

CITY           SKY/WX    TMP DP  RH WIND       PRES   REMARKS
FAIRMONT       CLOUDY    74  70  87 N6        30.00R
JACKSON        CLOUDY    70  66  88 CALM      30.02R
LUVERNE        LGT RAIN  68  64  88 CALM      30.00R
MARSHALL       CLOUDY    70  69  97 SW7       30.00R
MONTEVIDEO     CLOUDY    70  66  88 N6        29.98S
PIPESTONE      CLOUDY    70  66  88 SE3       30.01S
REDWOOD FALLS  CLOUDY    71  68  90 S6        29.97R
TRACY          RAIN      70  70  99 CALM      30.00S
WINDOM         CLOUDY    70  66  88 CALM      30.01R
WORTHINGTON    LGT RAIN  69  68  96 CALM      30.02R
$$

IAZ001>003-012>014-020>022-031-032-NEZ013-014-SDZ071-261200-
NORTHWEST IOWA

CITY           SKY/WX    TMP DP  RH WIND       PRES   REMARKS
DENISON        CLOUDY    77  73  88 CALM      30.00R
ESTHERVILLE    CLOUDY    73  73 100 NW5       29.98R FOG
ORANGE CITY    LGT RAIN  72  72 100 S3        29.99S
SHELDON        LGT RAIN  70  70 100 CALM      29.98S
SIOUX CITY     RAIN      72  72 100 S7        29.99R FOG
SPENCER        LGT RAIN  74  71  91 NW3       29.99R
STORM LAKE     CLOUDY    75  73  94 CALM      29.98F
$$

ABBREVIATIONS USED IN REMARKS
   TC - TEMPERATURE IN CELSIUS
  WCI - WIND CHILL INDEX
   HX - HEAT INDEX
  VSB - VISIBILITY





USA.gov is the U.S. government's official web portal to all federal, state and local government web resources and services.